SCP
-0 -0 -0 -1 -1 -1 -0 -0 -0 -0 -0 -0 -0 -0 -0 -0 -0 -0 -0 -0 -0 -0 -0 0 0 0 -0 -0 -0 -0 -0 -0 -0 -0 0 0 0 0 0 0 0 0 0
-1 -0 -0 -1 -1 -1 -0 -0 -0 -0 -0 -0 -0 -0 -0 -0 -0 -0 -0 -0 -0 0 0 0 -0 -0 -0 -0 -0 0 0 0 0 0 0 0 0 0 0 0 0 0 0
-1 -0 -0 -0 -1 -1 -0 -0 -0 -0 -0 -0 -0 -0 -0 -0 -0 -0 -0 0 0 0 0 0 -0 -0 0 -0 0 0 0 0 0 0 0 0 0 0 0 0 0 0 0
-0 -0 -0 -0 -0 -0 -0 -0 -0 -0 -0 -0 -0 -0 -0 -0 -0 -0 -0 -0 -0 -0 -0 0 0 0 0 0 0 0 0 0 0 -0 -0 0 0 0 0 0 0 0 0
0 0 0 -0 -0 -0 -0 -0 -0 -0 -0 -0 -0 -0 -0 0 0 0 -0 -0 -0 -0 -0 0 0 0 0 0 0 0 -0 0 0 0 -0 -0 0 0 0 0 0 0 0
1 1 0 0 0 -0 -0 -0 -0 -0 -0 -0 -0 -0 -0 -0 -0 0 -0 -0 -0 0 0 0 0 0 0 0 0 0 -0 -0 -0 0 -0 -0 0 0 0 0 0 0 0
1 1 1 0 0 0 0 0 0 0 0 0 0 0 0 0 0 0 0 0 0 0 0 0 0 0 0 0 0 0 -0 -0 -0 -0 -0 -0 0 0 0 0 0 0 -0
1 1 1 1 0 0 0 0 0 0 0 0 0 0 0 0 0 0 0 0 0 0 0 0 0 0 0 0 0 0 -0 -0 -0 -0 -0 -0 0 0 0 0 0 0 -0
0 0 1 1 1 1 1 0 0 0 0 0 0 0 0 0 0 0 0 0 0 0 0 0 0 0 0 0 0 0 -0 -0 -0 -0 -0 -0 0 0 0 -0 -0 -0 -0
0 0 1 1 1 1 1 1 1 0 0 0 0 0 0 0 0 0 0 0 0 0 0 0 0 -0 0 0 0 0 -0 -0 -0 -0 -0 -0 0 0 0 0 0 0 -0
0 0 1 2 1 1 1 1 1 0 1 0 0 0 0 0 0 0 0 0 0 0 0 0 0 0 -0 -0 -0 -0 -0 0 -0 -0 -0 -0 0 0 0 0 0 0 0
0 0 1 1 1 1 1 1 1 1 1 1 1 1 1 0 0 0 0 0 0 0 0 0 0 -0 -0 -0 -0 -0 -0 -0 -0 -0 -0 0 0 0 0 0 0 0 0
1 1 0 1 1 1 1 1 1 1 1 1 1 1 1 0 0 0 0 0 0 0 0 0 0 0 0 0 0 -0 -0 -0 0 -0 -0 0 0 0 0 0 0 0 0
2 1 0 0 0 0 1 1 1 1 1 1 1 1 1 0 0 0 0 0 0 0 0 0 0 0 0 0 0 0 0 0 0 0 0 0 0 0 0 0 0 0 0
1 1 0 0 0 0 0 1 1 1 1 1 1 1 1 1 0 0 0 0 0 0 0 0 0 0 0 0 0 0 0 0 0 0 0 0 0 0 0 1 0 0 0
1 0 1 0 0 0 0 1 0 1 1 1 1 1 1 1 1 0 0 0 0 0 0 0 0 0 0 0 0 0 0 0 0 0 0 0 1 1 1 1 1 1 1
0 0 0 0 1 1 1 1 1 0 0 1 1 1 1 1 1 1 0 0 0 0 0 0 0 0 0 0 0 0 1 0 0 1 1 1 1 1 1 1 1 1 1
0 0 0 1 0 0 2 1 1 1 0 0 0 0 0 1 1 0 0 0 0 0 0 0 0 0 0 0 0 1 1 1 1 1 1 1 1 1 1 0 1 1 1
0 0 0 0 0 0 0 1 2 2 1 0 0 0 0 1 1 1 1 1 1 1 1 1 0 0 0 1 1 0 1 1 1 1 1 1 1 1 1 1 1 1 1
0 0 0 0 0 0 0 0 2 3 3 2 1 1 1 1 1 2 2 1 1 1 1 1 1 1 1 1 1 1 1 1 1 1 1 1 1 1 1 1 1 1 1
0 0 0 0 0 0 0 3 3 4 3 2 2 2 1 1 2 2 2 2 1 1 1 1 1 1 1 1 1 1 1 2 1 1 2 2 2 1 1 1 1 1 2
0 0 0 0 0 0 0 0 3 3 2 2 2 2 2 2 1 2 2 2 3 2 2 1 2 1 1 1 1 1 1 1 2 2 2 2 1 2 2 1 1 1 1
0 0 0 0 0 0 0 0 0 0 0 1 0 1 1 1 1 2 2 2 2 2 2 1 1 1 1 1 1 2 1 1 1 1 2 2 2 2 2 2 2 1 2
0 0 0 0 0 0 0 0 0 0 0 0 0 0 0 0 1 2 2 2 0 0 0 2 2 2 2 1 1 1 1 1 1 0 1 2 2 2 2 3 2 1 1
0 0 0 0 0 0 0 0 0 0 0 0 0 0 0 0 -0 0 1 0 0 0 1 1 1 1 1 1 2 1 1 1 0 0 0 0 1 2 2 2 1 0 0
0 0 0 0 0 0 0 0 0 0 0 0 0 0 0 0 0 0 0 0 0 0 0 0 0 0 1 1 1 1 0 0 0 0 -0 -0 0 0 1 1 1 0 0
Wind_Speed_500mb
59 54 51 49 50 48 45 44 46 47 44 41 37 32 31 32 34 36 38 39 36 32 27 24 21 20 20 19 19 19 20 24 26 28 28 26 27 28 26 22 19 18 16
55 56 54 50 52 49 47 47 46 44 43 40 37 36 39 42 42 41 40 38 34 30 26 22 21 21 22 23 22 20 20 20 20 18 18 20 23 25 25 23 17 17 17
53 55 57 52 52 49 49 47 44 42 42 42 40 41 43 41 40 39 38 35 32 28 25 23 22 22 23 22 20 19 23 26 21 14 13 14 15 20 21 19 20 18 15
46 53 58 55 53 50 48 47 43 40 42 43 41 41 40 38 37 35 34 31 28 25 23 21 19 18 18 17 17 17 20 19 17 12 12 12 11 17 18 18 17 17 16
46 50 57 57 53 51 49 47 43 40 40 41 41 39 38 37 35 33 30 28 26 24 22 19 17 16 15 14 15 16 18 20 13 10 4 7 11 19 16 20 14 13 14
47 52 57 56 53 50 47 46 43 40 37 37 38 36 35 33 32 31 29 26 24 21 18 16 15 14 13 12 12 13 15 17 20 15 8 2 6 10 17 18 14 11 11
45 50 52 54 52 49 46 45 43 39 37 35 34 33 32 30 29 28 26 24 22 20 18 16 14 13 12 10 9 8 10 13 20 18 12 8 5 8 19 17 12 9 8
42 47 50 51 50 48 46 44 43 42 39 36 33 32 32 31 29 28 27 26 23 21 18 16 14 12 10 10 8 7 7 8 12 23 16 7 4 5 17 18 15 11 9
26 38 46 49 50 47 45 44 44 43 42 40 37 34 32 31 31 31 30 26 23 22 21 19 16 13 11 9 8 6 6 8 12 23 22 11 5 4 18 24 17 11 11
25 25 36 47 50 51 48 45 44 45 45 45 42 38 35 34 34 33 31 29 27 24 21 18 16 15 14 11 9 6 6 9 12 20 20 10 2 6 18 24 16 10 10
32 21 29 43 51 51 49 46 45 47 48 49 47 44 41 38 36 35 34 32 30 27 25 23 21 18 16 14 13 8 6 8 17 13 10 6 1 6 19 27 16 10 12
39 37 37 37 50 52 51 50 48 49 54 56 55 52 49 43 39 39 38 38 36 34 32 30 28 25 24 19 21 17 13 14 15 12 10 6 4 5 17 25 19 13 10
54 53 48 34 46 49 52 50 49 49 52 56 59 59 54 50 47 47 44 45 43 41 40 37 35 32 27 25 25 25 24 22 18 14 17 17 12 6 14 20 17 16 10
66 59 53 44 38 40 41 46 48 51 49 54 60 61 60 59 57 56 52 51 50 48 44 41 37 32 30 30 33 30 30 28 23 19 14 17 15 16 20 20 17 17 16
52 60 56 49 43 39 35 35 46 46 46 42 50 58 64 66 64 61 59 57 56 53 48 46 44 39 37 35 33 32 31 27 22 25 22 26 26 30 32 24 22 19 20
22 37 64 57 46 42 35 35 44 40 35 36 36 53 58 63 68 67 67 66 62 57 52 49 49 45 43 42 39 35 33 29 28 32 31 34 41 35 33 29 26 24 23
25 32 44 51 55 52 43 35 40 39 41 40 43 38 51 55 64 68 71 72 71 64 55 47 44 43 47 50 49 39 33 30 37 37 38 45 45 40 38 40 34 31 28
25 32 44 48 52 52 45 43 46 44 40 46 49 46 49 51 47 57 68 75 75 67 58 56 54 50 49 48 51 44 41 42 42 39 44 49 47 48 44 46 42 40 39
30 35 38 43 42 38 45 53 50 44 56 56 57 60 57 57 54 53 54 64 74 73 66 64 63 58 57 58 57 54 51 52 51 49 53 49 46 47 49 49 45 45 45
33 24 29 40 44 36 37 46 50 52 55 59 64 62 68 64 64 63 62 63 62 69 76 77 71 64 65 65 69 72 65 60 58 64 63 55 52 52 55 48 45 44 46
44 40 40 45 38 31 31 38 48 56 55 59 56 59 70 67 72 74 69 73 75 67 72 72 73 79 82 73 66 69 70 71 72 68 70 62 60 58 55 49 43 42 44
50 44 41 43 41 33 26 23 35 49 50 52 55 57 58 63 74 80 76 77 78 73 69 73 77 77 84 86 86 84 81 85 86 79 75 71 72 65 61 49 49 46 43
60 58 54 44 29 20 19 22 25 31 39 48 56 57 49 49 63 70 76 76 74 77 62 73 73 78 79 82 85 76 46 60 69 80 83 76 69 64 63 54 53 41 36
53 51 47 41 34 28 23 25 30 35 40 49 50 55 57 51 45 50 63 77 74 74 87 100 90 88 75 93 91 86 92 71 45 49 62 70 72 73 68 61 56 48 44
57 52 44 36 30 27 26 32 32 26 30 36 43 50 58 60 58 55 51 51 51 67 82 83 100 94 88 91 88 84 81 74 73 73 47 33 51 65 76 69 55 52 49
42 36 31 27 26 24 23 24 31 36 37 39 40 45 50 53 51 47 43 43 49 57 72 87 90 94 104 90 74 67 79 78 56 35 66 70 52 49 59 61 60 55 55
Wind_Direction_500mb
169 162 159 162 157 153 148 145 147 149 151 151 152 156 160 156 149 143 142 143 144 143 141 138 134 131 130 129 127 125 116 110 103 97 79 73 59 49 37 37 46 58 65
165 165 161 164 160 155 150 147 147 151 154 156 155 152 149 145 141 140 141 143 144 143 142 139 137 136 134 134 137 134 125 123 112 105 81 74 59 51 37 32 35 49 54
166 165 162 166 162 158 154 151 150 151 154 155 152 149 147 145 143 144 145 147 147 146 145 144 143 143 146 146 146 145 131 123 113 103 98 89 61 43 25 23 28 35 43
168 167 165 166 165 162 158 156 154 151 152 154 153 151 151 151 151 152 152 151 149 147 146 147 147 146 151 155 152 150 147 136 122 104 103 97 76 10 359 10 22 27 36
169 169 166 167 169 166 163 161 159 155 154 157 158 157 158 160 161 160 159 157 153 153 154 155 157 159 164 169 166 162 163 166 149 138 111 130 72 360 341 354 5 10 16
169 170 169 169 172 171 169 166 166 163 160 162 164 165 167 169 169 167 164 162 161 161 162 165 169 174 176 182 181 174 174 179 177 179 236 253 110 347 337 348 351 343 351
173 171 171 173 175 176 175 173 172 172 170 169 171 173 175 177 176 173 170 170 171 171 174 177 182 186 182 188 194 191 185 189 196 195 206 212 156 309 316 331 330 317 311
181 174 175 177 179 181 181 181 180 180 181 181 180 182 185 185 185 182 180 181 182 184 188 190 192 195 198 201 204 200 199 200 202 206 212 231 213 298 313 326 321 298 286
172 181 180 182 182 186 187 188 189 189 191 191 193 193 194 195 195 193 191 193 197 198 196 195 197 203 207 211 217 216 213 211 205 198 214 237 225 316 318 325 325 290 282
171 181 190 189 188 189 190 191 194 197 199 201 202 203 204 203 205 204 204 204 206 206 208 208 206 211 212 214 218 216 222 206 190 196 203 208 253 319 319 323 317 293 282
182 189 195 201 196 194 194 195 197 202 205 206 209 211 213 214 213 213 214 215 217 216 216 213 214 216 223 224 220 203 201 171 175 171 179 191 306 315 321 316 304 292 288
205 203 201 201 201 199 199 200 202 204 207 209 212 214 218 221 223 223 222 222 223 223 222 220 220 220 220 224 220 206 184 175 174 183 189 209 245 309 317 314 298 288 281
214 207 203 199 202 203 204 206 208 213 213 214 216 219 222 225 228 230 228 227 226 229 229 228 227 227 226 224 215 214 201 196 194 224 236 231 242 254 288 297 292 284 277
216 215 205 194 190 203 210 216 218 217 217 221 222 224 227 228 231 233 237 234 230 231 235 237 238 239 239 243 228 225 219 220 221 242 243 249 257 269 279 279 280 275 275
220 221 212 199 195 204 202 212 217 215 221 232 237 235 234 235 236 240 239 241 239 236 237 241 241 240 243 240 234 241 237 234 241 249 261 270 274 272 275 274 276 268 267
193 210 223 206 204 205 220 224 213 216 220 228 246 242 240 243 244 242 244 244 242 239 238 243 244 245 247 244 244 247 246 243 237 250 265 272 277 268 264 267 266 266 263
232 196 197 216 228 235 225 245 242 243 238 240 249 260 250 247 248 248 247 247 247 243 243 242 244 241 243 241 247 244 249 246 241 248 259 265 263 262 265 265 264 265 261
225 188 190 206 217 230 235 250 251 249 251 254 258 256 255 254 252 250 249 251 249 248 248 245 246 245 244 245 248 247 246 242 244 249 255 253 253 259 257 259 260 260 261
204 191 183 190 198 221 245 246 233 249 255 263 270 268 265 261 262 263 258 256 253 249 249 250 251 249 250 252 257 256 255 253 254 251 253 252 257 259 263 266 264 266 267
224 204 186 182 193 206 222 231 229 240 248 259 263 268 269 265 265 259 261 262 257 253 252 251 254 252 251 254 253 255 255 260 264 262 255 256 257 264 267 263 264 267 273
216 213 194 191 195 210 228 233 240 247 248 252 260 271 267 269 270 268 263 261 263 259 255 254 256 254 250 250 255 258 254 254 258 254 249 251 254 257 257 261 264 273 276
226 211 207 199 203 214 228 233 242 255 260 262 264 268 271 269 269 269 267 264 258 258 265 266 262 258 256 253 252 257 261 262 260 252 248 251 257 256 254 258 265 274 275
211 203 188 187 193 199 227 243 249 253 263 268 269 272 278 271 268 268 268 266 263 258 259 271 270 267 270 266 257 250 249 244 255 255 248 247 249 251 251 259 264 265 267
193 185 190 192 193 198 213 242 253 252 257 262 270 275 281 282 280 279 283 270 267 270 261 254 257 262 264 264 263 258 251 251 256 256 255 252 255 254 246 257 255 257 271
170 172 175 175 182 194 210 232 244 248 261 272 276 282 284 288 293 292 288 285 283 262 262 264 259 263 265 267 266 266 263 265 270 279 277 267 269 259 249 249 248 256 264
151 152 155 166 172 189 215 237 256 270 283 293 302 300 290 292 300 306 306 302 293 291 253 258 259 246 266 260 259 259 266 256 247 285 312 315 293 286 258 238 243 260 261
Wind_Speed_850mb
59 54 51 49 50 48 45 44 46 47 44 41 37 32 31 32 34 36 38 39 36 32 27 24 21 20 20 19 19 19 20 24 26 28 28 26 27 28 26 22 19 18 16
55 56 54 50 52 49 47 47 46 44 43 40 37 36 39 42 42 41 40 38 34 30 26 22 21 21 22 23 22 20 20 20 20 18 18 20 23 25 25 23 17 17 17
53 55 57 52 52 49 49 47 44 42 42 42 40 41 43 41 40 39 38 35 32 28 25 23 22 22 23 22 20 19 23 26 21 14 13 14 15 20 21 19 20 18 15
46 53 58 55 53 50 48 47 43 40 42 43 41 41 40 38 37 35 34 31 28 25 23 21 19 18 18 17 17 17 20 19 17 12 12 12 11 17 18 18 17 17 16
46 50 57 57 53 51 49 47 43 40 40 41 41 39 38 37 35 33 30 28 26 24 22 19 17 16 15 14 15 16 18 20 13 10 4 7 11 19 16 20 14 13 14
47 52 57 56 53 50 47 46 43 40 37 37 38 36 35 33 32 31 29 26 24 21 18 16 15 14 13 12 12 13 15 17 20 15 8 2 6 10 17 18 14 11 11
45 50 52 54 52 49 46 45 43 39 37 35 34 33 32 30 29 28 26 24 22 20 18 16 14 13 12 10 9 8 10 13 20 18 12 8 5 8 19 17 12 9 8
42 47 50 51 50 48 46 44 43 42 39 36 33 32 32 31 29 28 27 26 23 21 18 16 14 12 10 10 8 7 7 8 12 23 16 7 4 5 17 18 15 11 9
26 38 46 49 50 47 45 44 44 43 42 40 37 34 32 31 31 31 30 26 23 22 21 19 16 13 11 9 8 6 6 8 12 23 22 11 5 4 18 24 17 11 11
25 25 36 47 50 51 48 45 44 45 45 45 42 38 35 34 34 33 31 29 27 24 21 18 16 15 14 11 9 6 6 9 12 20 20 10 2 6 18 24 16 10 10
32 21 29 43 51 51 49 46 45 47 48 49 47 44 41 38 36 35 34 32 30 27 25 23 21 18 16 14 13 8 6 8 17 13 10 6 1 6 19 27 16 10 12
39 37 37 37 50 52 51 50 48 49 54 56 55 52 49 43 39 39 38 38 36 34 32 30 28 25 24 19 21 17 13 14 15 12 10 6 4 5 17 25 19 13 10
54 53 48 34 46 49 52 50 49 49 52 56 59 59 54 50 47 47 44 45 43 41 40 37 35 32 27 25 25 25 24 22 18 14 17 17 12 6 14 20 17 16 10
66 59 53 44 38 40 41 46 48 51 49 54 60 61 60 59 57 56 52 51 50 48 44 41 37 32 30 30 33 30 30 28 23 19 14 17 15 16 20 20 17 17 16
52 60 56 49 43 39 35 35 46 46 46 42 50 58 64 66 64 61 59 57 56 53 48 46 44 39 37 35 33 32 31 27 22 25 22 26 26 30 32 24 22 19 20
22 37 64 57 46 42 35 35 44 40 35 36 36 53 58 63 68 67 67 66 62 57 52 49 49 45 43 42 39 35 33 29 28 32 31 34 41 35 33 29 26 24 23
25 32 44 51 55 52 43 35 40 39 41 40 43 38 51 55 64 68 71 72 71 64 55 47 44 43 47 50 49 39 33 30 37 37 38 45 45 40 38 40 34 31 28
25 32 44 48 52 52 45 43 46 44 40 46 49 46 49 51 47 57 68 75 75 67 58 56 54 50 49 48 51 44 41 42 42 39 44 49 47 48 44 46 42 40 39
30 35 38 43 42 38 45 53 50 44 56 56 57 60 57 57 54 53 54 64 74 73 66 64 63 58 57 58 57 54 51 52 51 49 53 49 46 47 49 49 45 45 45
33 24 29 40 44 36 37 46 50 52 55 59 64 62 68 64 64 63 62 63 62 69 76 77 71 64 65 65 69 72 65 60 58 64 63 55 52 52 55 48 45 44 46
44 40 40 45 38 31 31 38 48 56 55 59 56 59 70 67 72 74 69 73 75 67 72 72 73 79 82 73 66 69 70 71 72 68 70 62 60 58 55 49 43 42 44
50 44 41 43 41 33 26 23 35 49 50 52 55 57 58 63 74 80 76 77 78 73 69 73 77 77 84 86 86 84 81 85 86 79 75 71 72 65 61 49 49 46 43
60 58 54 44 29 20 19 22 25 31 39 48 56 57 49 49 63 70 76 76 74 77 62 73 73 78 79 82 85 76 46 60 69 80 83 76 69 64 63 54 53 41 36
53 51 47 41 34 28 23 25 30 35 40 49 50 55 57 51 45 50 63 77 74 74 87 100 90 88 75 93 91 86 92 71 45 49 62 70 72 73 68 61 56 48 44
57 52 44 36 30 27 26 32 32 26 30 36 43 50 58 60 58 55 51 51 51 67 82 83 100 94 88 91 88 84 81 74 73 73 47 33 51 65 76 69 55 52 49
42 36 31 27 26 24 23 24 31 36 37 39 40 45 50 53 51 47 43 43 49 57 72 87 90 94 104 90 74 67 79 78 56 35 66 70 52 49 59 61 60 55 55
Wind_Direction_850mb
169 162 159 162 157 153 148 145 147 149 151 151 152 156 160 156 149 143 142 143 144 143 141 138 134 131 130 129 127 125 116 110 103 97 79 73 59 49 37 37 46 58 65
165 165 161 164 160 155 150 147 147 151 154 156 155 152 149 145 141 140 141 143 144 143 142 139 137 136 134 134 137 134 125 123 112 105 81 74 59 51 37 32 35 49 54
166 165 162 166 162 158 154 151 150 151 154 155 152 149 147 145 143 144 145 147 147 146 145 144 143 143 146 146 146 145 131 123 113 103 98 89 61 43 25 23 28 35 43
168 167 165 166 165 162 158 156 154 151 152 154 153 151 151 151 151 152 152 151 149 147 146 147 147 146 151 155 152 150 147 136 122 104 103 97 76 10 359 10 22 27 36
169 169 166 167 169 166 163 161 159 155 154 157 158 157 158 160 161 160 159 157 153 153 154 155 157 159 164 169 166 162 163 166 149 138 111 130 72 360 341 354 5 10 16
169 170 169 169 172 171 169 166 166 163 160 162 164 165 167 169 169 167 164 162 161 161 162 165 169 174 176 182 181 174 174 179 177 179 236 253 110 347 337 348 351 343 351
173 171 171 173 175 176 175 173 172 172 170 169 171 173 175 177 176 173 170 170 171 171 174 177 182 186 182 188 194 191 185 189 196 195 206 212 156 309 316 331 330 317 311
181 174 175 177 179 181 181 181 180 180 181 181 180 182 185 185 185 182 180 181 182 184 188 190 192 195 198 201 204 200 199 200 202 206 212 231 213 298 313 326 321 298 286
172 181 180 182 182 186 187 188 189 189 191 191 193 193 194 195 195 193 191 193 197 198 196 195 197 203 207 211 217 216 213 211 205 198 214 237 225 316 318 325 325 290 282
171 181 190 189 188 189 190 191 194 197 199 201 202 203 204 203 205 204 204 204 206 206 208 208 206 211 212 214 218 216 222 206 190 196 203 208 253 319 319 323 317 293 282
182 189 195 201 196 194 194 195 197 202 205 206 209 211 213 214 213 213 214 215 217 216 216 213 214 216 223 224 220 203 201 171 175 171 179 191 306 315 321 316 304 292 288
205 203 201 201 201 199 199 200 202 204 207 209 212 214 218 221 223 223 222 222 223 223 222 220 220 220 220 224 220 206 184 175 174 183 189 209 245 309 317 314 298 288 281
214 207 203 199 202 203 204 206 208 213 213 214 216 219 222 225 228 230 228 227 226 229 229 228 227 227 226 224 215 214 201 196 194 224 236 231 242 254 288 297 292 284 277
216 215 205 194 190 203 210 216 218 217 217 221 222 224 227 228 231 233 237 234 230 231 235 237 238 239 239 243 228 225 219 220 221 242 243 249 257 269 279 279 280 275 275
220 221 212 199 195 204 202 212 217 215 221 232 237 235 234 235 236 240 239 241 239 236 237 241 241 240 243 240 234 241 237 234 241 249 261 270 274 272 275 274 276 268 267
193 210 223 206 204 205 220 224 213 216 220 228 246 242 240 243 244 242 244 244 242 239 238 243 244 245 247 244 244 247 246 243 237 250 265 272 277 268 264 267 266 266 263
232 196 197 216 228 235 225 245 242 243 238 240 249 260 250 247 248 248 247 247 247 243 243 242 244 241 243 241 247 244 249 246 241 248 259 265 263 262 265 265 264 265 261
225 188 190 206 217 230 235 250 251 249 251 254 258 256 255 254 252 250 249 251 249 248 248 245 246 245 244 245 248 247 246 242 244 249 255 253 253 259 257 259 260 260 261
204 191 183 190 198 221 245 246 233 249 255 263 270 268 265 261 262 263 258 256 253 249 249 250 251 249 250 252 257 256 255 253 254 251 253 252 257 259 263 266 264 266 267
224 204 186 182 193 206 222 231 229 240 248 259 263 268 269 265 265 259 261 262 257 253 252 251 254 252 251 254 253 255 255 260 264 262 255 256 257 264 267 263 264 267 273
216 213 194 191 195 210 228 233 240 247 248 252 260 271 267 269 270 268 263 261 263 259 255 254 256 254 250 250 255 258 254 254 258 254 249 251 254 257 257 261 264 273 276
226 211 207 199 203 214 228 233 242 255 260 262 264 268 271 269 269 269 267 264 258 258 265 266 262 258 256 253 252 257 261 262 260 252 248 251 257 256 254 258 265 274 275
211 203 188 187 193 199 227 243 249 253 263 268 269 272 278 271 268 268 268 266 263 258 259 271 270 267 270 266 257 250 249 244 255 255 248 247 249 251 251 259 264 265 267
193 185 190 192 193 198 213 242 253 252 257 262 270 275 281 282 280 279 283 270 267 270 261 254 257 262 264 264 263 258 251 251 256 256 255 252 255 254 246 257 255 257 271
170 172 175 175 182 194 210 232 244 248 261 272 276 282 284 288 293 292 288 285 283 262 262 264 259 263 265 267 266 266 263 265 270 279 277 267 269 259 249 249 248 256 264
151 152 155 166 172 189 215 237 256 270 283 293 302 300 290 292 300 306 306 302 293 291 253 258 259 246 266 260 259 259 266 256 247 285 312 315 293 286 258 238 243 260 261